User: anonymous   Login
Location: Caltech
(34.1382°N, 118.1253°W)
Time: 01:33:20
(UTC-07:00)
Language:

KITSAT 1 - Orbit

View from above orbital plane
View from above orbital plane
View from above satellite
View from above satellite

Ground track
Ground track

The orbit data is extracted from the following two-line orbital elements,

1 22077U 92052B   15244.20079186 -.00000060  00000-0  72755-5 0  9993
2 22077  66.0826 258.5239 0014214 295.2497 131.9078 12.86507561 83137
Epoch (UTC): 01 September 2015 04:49:08
Eccentricity: 0.0014214
inclination: 66.0826°
perigee height: 1304 km
apogee height: 1326 km
right ascension of ascending node: 258.5239°
argument of perigee: 295.2497°
revolutions per day: 12.86507561
mean anomaly at epoch: 131.9078°
orbit number at epoch: 8313

The dashed part of the orbit path shows where the satellite is in the earth's shadow,  

DLR